TimeCST,TemperatureF,Dew PointF,Humidity,Sea Level PressureIn,VisibilityMPH,Wind Direction,Wind SpeedMPH,Gust SpeedMPH,PrecipitationIn,Events,Conditions,WindDirDegrees,DateUTC
12:53 AM,48.0,33.1,56,30.03,10.0,SSE,9.2,-,N/A,,Clear,160,2012-12-06 06:53:00
1:53 AM,48.0,32.0,54,30.02,10.0,SE,8.1,-,N/A,,Clear,140,2012-12-06 07:53:00
2:53 AM,43.0,33.1,68,30.01,10.0,ESE,8.1,-,N/A,,Clear,110,2012-12-06 08:53:00
3:53 AM,44.1,33.1,65,30.00,10.0,SE,5.8,-,N/A,,Clear,140,2012-12-06 09:53:00
4:53 AM,43.0,32.0,65,29.99,10.0,SE,6.9,-,N/A,,Clear,140,2012-12-06 10:53:00
5:53 AM,42.8,32.0,66,29.97,10.0,SE,6.9,-,N/A,,Clear,140,2012-12-06 11:53:00
6:53 AM,42.1,33.1,70,29.98,10.0,SE,8.1,-,N/A,,Clear,130,2012-12-06 12:53:00
7:53 AM,43.0,35.1,74,29.97,10.0,SSE,9.2,-,N/A,,Clear,150,2012-12-06 13:53:00
8:53 AM,48.0,39.0,71,29.97,10.0,SE,10.4,-,N/A,,Clear,140,2012-12-06 14:53:00
9:53 AM,50.0,42.1,74,29.96,10.0,SSE,10.4,-,N/A,,Clear,150,2012-12-06 15:53:00
10:53 AM,55.0,45.0,69,29.95,10.0,South,10.4,-,N/A,,Clear,170,2012-12-06 16:53:00
11:53 AM,59.0,46.0,62,29.91,10.0,South,12.7,-,N/A,,Clear,170,2012-12-06 17:53:00
12:53 PM,60.1,45.0,57,29.89,10.0,South,9.2,-,N/A,,Clear,170,2012-12-06 18:53:00
1:53 PM,60.1,46.0,60,29.86,10.0,SE,5.8,-,N/A,,Clear,130,2012-12-06 19:53:00
2:53 PM,62.1,45.0,53,29.83,10.0,SSE,5.8,-,N/A,,Clear,150,2012-12-06 20:53:00
3:53 PM,62.1,45.0,53,29.83,10.0,ESE,8.1,-,N/A,,Clear,120,2012-12-06 21:53:00
4:53 PM,57.0,44.1,62,29.83,10.0,ESE,5.8,-,N/A,,Clear,110,2012-12-06 22:53:00
5:53 PM,54.0,44.1,69,29.85,10.0,Calm,Calm,-,N/A,,Clear,0,2012-12-06 23:53:00
6:53 PM,51.1,44.1,77,29.87,10.0,Calm,Calm,-,N/A,,Clear,0,2012-12-07 00:53:00
7:53 PM,52.0,44.1,74,29.88,10.0,SW,6.9,-,N/A,,Clear,230,2012-12-07 01:53:00
8:53 PM,51.1,45.0,80,29.88,10.0,NW,6.9,-,N/A,,Overcast,310,2012-12-07 02:53:00
9:53 PM,53.1,45.0,74,29.88,10.0,North,3.5,-,N/A,,Overcast,350,2012-12-07 03:53:00
10:53 PM,52.0,46.0,80,29.88,10.0,SW,3.5,-,N/A,,Overcast,230,2012-12-07 04:53:00
11:53 PM,52.0,45.0,77,29.88,10.0,SW,3.5,-,N/A,,Overcast,230,2012-12-07 05:53:00